Regional Weather Roundup
Issued by NWS Huntsville, AL

Home | Current Version | Previous Version | Text Only | Print | Product List | Glossary On
Versions: 1 2 3 4 5 6 7 8 9 10 11 12 13 14 15 16 17 18 19 20 21 22 23 24 25 26 27 28 29 30 31 32 33 34 35 36 37 38 39 40 41 42 43 44 45 46 47 48 49 50
000
ASUS44 KHUN 312110
RWRHUN

WEATHER ROUNDUP FOR THE TENNESSEE VALLEY
NATIONAL WEATHER SERVICE HUNTSVILLE AL
300 PM CST SAT JAN 31 2015

ALZ001>004-312200-
NORTHWEST ALABAMA

CITY           SKY/WX    TMP DP  RH WIND       PRES   REMARKS
COURTLAND HCN    N/A     50 N/A N/A E5          N/A
RUSSELLVILLE     N/A     50 N/A N/A MISG        N/A
SHOALS AIRPORT CLOUDY    50  21  32 NE3       30.28F
SHOALS TVA RES   N/A     48 N/A N/A MISG        N/A
$$

ALZ005>007-016-312200-
NORTH CENTRAL ALABAMA

CITY           SKY/WX    TMP DP  RH WIND       PRES   REMARKS
CULLMAN AG STN   N/A     54 N/A N/A SE5         N/A
DECATUR AP     CLOUDY    51  16  24 E6        30.28F
HUNTSVILLE AP  CLOUDY    53  14  21 NE3       30.27F
HUN NWS/UAH      N/A     51  12  21 E1          N/A
MERIDIANVILLE  CLOUDY    50   9  18 CALM      30.28F
REDSTONE ARSN  CLOUDY    51  10  19 E3        30.27F
$$

ALZ008>010-312200-
NORTHEAST ALABAMA

CITY           SKY/WX    TMP DP  RH WIND       PRES   REMARKS
ALBERTVILLE    PTSUNNY   52  25  35 E3        30.26S
FORT PAYNE     PTSUNNY   48   5  17 E6        30.28S
SCOTTSBORO AP  PTSUNNY   46  23  39 NE3       30.30S
VALLEY HEAD      N/A     48 N/A N/A MISG        N/A
$$

TNZ076-096-097-312200-
SOUTHEASTERN MIDDLE TENNESSEE

CITY           SKY/WX    TMP DP  RH WIND       PRES   REMARKS
TULLAHOMA      SUNNY     46   7  19 CALM      30.29S
WINCHESTER     SUNNY     48   9  20 CALM      30.28F
$$

...SURROUNDING SITES...

CITY           SKY/WX    TMP DP  RH WIND       PRES   REMARKS
ATLANTA        PTSUNNY   54  16  22 E5        30.29F
ANNISTON       MOSUNNY   60  13  15 CALM      30.27F
BIRMINGHAM     PTSUNNY   59  10  14 VRB5      30.28F
CHATTANOOGA    CLOUDY    47  17  30 N5        30.31F
CORINTH        PTSUNNY   50  21  32 E6        30.24F
DALTON         CLOUDY    48  19  32 CALM      30.30S
GADSDEN        MOSUNNY   55  16  21 CALM      30.28F
GOLDEN TRNGL   MOSUNNY   57  23  26 S8        30.24F
HALEYVILLE       N/A     55  12  18 CALM      30.27F
JACKSON TN     CLOUDY    46  21  37 SE3       30.26F
LEWISBURG      FAIR      47  18  31 NE3       30.28F
MEMPHIS        CLOUDY    47  22  37 E7        30.24F
NASHVILLE      CLOUDY    46  18  32 NE5       30.31S
OXFORD MS      FAIR      48  19  32 SE6       30.25S
ROME           CLOUDY    49  18  29 CALM      30.29F
SAVANNAH       SUNNY     48  19  32 CALM      30.26F
TUPELO         CLOUDY    54  19  25 E6        30.24F
TUSCALOOSA     SUNNY     61  12  14 SE5       30.25F
$$

...GULF COAST WEATHER...

CITY           SKY/WX    TMP DP  RH WIND       PRES   REMARKS
GULFPORT       MOSUNNY   58  45  62 E16       30.22F
PASCAGOULA     SUNNY     60  43  53 SE14      30.24F
MOBILE         MOSUNNY   60  30  32 SE9       30.24F
GULF SHORES    CLEAR     59  45  59 E13       30.25F
PENSACOLA      PTSUNNY   59  44  57 E13       30.24F
DESTIN         SUNNY     59  36  42 SE6       30.26F
PANAMA CITY    SUNNY     64  31  29 E7        30.26F
APPALACHICOLA  SUNNY     61  42  49 E9        30.26F
$$



USA.gov is the U.S. government's official web portal to all federal, state and local government web resources and services.